TimeEST,TemperatureF,Dew PointF,Humidity,Sea Level PressureIn,VisibilityMPH,Wind Direction,Wind SpeedMPH,Gust SpeedMPH,PrecipitationIn,Events,Conditions,WindDirDegrees,DateUTC
12:15 AM,71.6,68.0,88,30.18,10.0,East,9.2,-,N/A,,Clear,90,2013-01-09 05:15:00
12:35 AM,71.6,68.0,88,30.18,10.0,East,8.1,-,N/A,,Clear,80,2013-01-09 05:35:00
12:55 AM,71.6,68.0,88,30.18,9.0,East,8.1,-,N/A,,Clear,80,2013-01-09 05:55:00
1:15 AM,71.6,68.0,88,30.18,8.0,ENE,8.1,-,N/A,,Clear,70,2013-01-09 06:15:00
1:35 AM,69.8,68.0,94,30.18,7.0,East,6.9,-,N/A,,Clear,80,2013-01-09 06:35:00
1:55 AM,69.8,68.0,94,30.18,7.0,East,6.9,-,N/A,,Clear,80,2013-01-09 06:55:00
2:15 AM,68.0,68.0,100,30.18,5.0,ENE,6.9,-,N/A,,Clear,70,2013-01-09 07:15:00
2:35 AM,68.0,68.0,100,30.18,5.0,ENE,6.9,-,N/A,,Clear,70,2013-01-09 07:35:00
2:55 AM,68.0,68.0,100,30.18,5.0,ENE,8.1,-,N/A,,Clear,70,2013-01-09 07:55:00
3:15 AM,68.0,68.0,100,30.18,5.0,East,8.1,-,N/A,,Clear,80,2013-01-09 08:15:00
3:35 AM,68.0,68.0,100,30.18,5.0,East,8.1,-,N/A,,Clear,90,2013-01-09 08:35:00
3:55 AM,68.0,68.0,100,30.17,5.0,East,8.1,-,N/A,,Clear,90,2013-01-09 08:55:00
4:15 AM,68.0,68.0,100,30.17,5.0,East,9.2,-,N/A,,Clear,80,2013-01-09 09:15:00
4:35 AM,68.0,68.0,100,30.17,5.0,East,9.2,-,N/A,,Scattered Clouds,80,2013-01-09 09:35:00
4:55 AM,68.0,68.0,100,30.17,5.0,East,9.2,-,N/A,,Scattered Clouds,90,2013-01-09 09:55:00
5:15 AM,68.0,68.0,100,30.18,5.0,East,8.1,-,N/A,,Partly Cloudy,80,2013-01-09 10:15:00
5:35 AM,68.0,68.0,100,30.18,5.0,East,8.1,-,N/A,,Clear,80,2013-01-09 10:35:00
5:55 AM,68.0,68.0,100,30.19,5.0,East,8.1,-,N/A,,Mostly Cloudy,80,2013-01-09 10:55:00
6:15 AM,68.0,68.0,100,30.19,5.0,East,8.1,-,N/A,,Mostly Cloudy,80,2013-01-09 11:15:00
6:35 AM,68.0,68.0,100,30.20,5.0,East,8.1,-,N/A,,Scattered Clouds,80,2013-01-09 11:35:00
6:55 AM,68.0,68.0,100,30.21,5.0,East,6.9,-,N/A,,Clear,80,2013-01-09 11:55:00
7:15 AM,68.0,68.0,100,30.21,5.0,East,6.9,-,N/A,,Clear,80,2013-01-09 12:15:00
7:35 AM,68.0,68.0,100,30.22,3.0,East,6.9,-,N/A,,Clear,80,2013-01-09 12:35:00
7:55 AM,68.0,68.0,100,30.23,3.0,East,8.1,-,N/A,,Clear,80,2013-01-09 12:55:00
8:15 AM,69.8,69.8,100,30.23,5.0,East,9.2,-,N/A,,Clear,90,2013-01-09 13:15:00
8:35 AM,71.6,71.6,100,30.24,6.0,East,10.4,-,N/A,,Clear,100,2013-01-09 13:35:00
9:15 AM,73.4,71.6,94,30.25,8.0,East,11.5,-,N/A,,Scattered Clouds,100,2013-01-09 14:15:00
9:35 AM,75.2,71.6,89,30.26,8.0,ESE,10.4,-,N/A,,Scattered Clouds,110,2013-01-09 14:35:00
9:55 AM,75.2,71.6,89,30.26,9.0,SE,13.8,18.4,N/A,,Mostly Cloudy,130,2013-01-09 14:55:00
10:15 AM,77.0,71.6,83,30.26,9.0,ESE,16.1,21.9,N/A,,Mostly Cloudy,120,2013-01-09 15:15:00
10:35 AM,77.0,69.8,78,30.26,9.0,ESE,10.4,18.4,N/A,,Mostly Cloudy,120,2013-01-09 15:35:00
10:55 AM,78.8,69.8,74,30.26,10.0,ESE,11.5,-,N/A,,Mostly Cloudy,120,2013-01-09 15:55:00
11:15 AM,80.6,68.0,65,30.26,9.0,SE,11.5,18.4,N/A,,Scattered Clouds,130,2013-01-09 16:15:00
12:35 PM,82.4,66.2,58,30.23,10.0,SE,11.5,19.6,N/A,,Partly Cloudy,130,2013-01-09 17:35:00
1:15 PM,84.2,68.0,58,30.21,10.0,ESE,15.0,19.6,N/A,,Partly Cloudy,110,2013-01-09 18:15:00
1:35 PM,84.2,66.2,55,30.21,10.0,ESE,10.4,18.4,N/A,,Scattered Clouds,110,2013-01-09 18:35:00
1:55 PM,84.2,64.4,51,30.20,10.0,SE,12.7,-,N/A,,Partly Cloudy,140,2013-01-09 18:55:00
2:15 PM,86.0,64.4,48,30.20,5.0,South,6.9,20.7,N/A,,Haze,190,2013-01-09 19:15:00
2:35 PM,84.2,66.2,55,30.19,10.0,ESE,11.5,-,N/A,,Mostly Cloudy,110,2013-01-09 19:35:00
2:55 PM,86.0,64.4,48,30.19,9.0,SE,9.2,18.4,N/A,,Scattered Clouds,140,2013-01-09 19:55:00
3:15 PM,84.2,66.2,55,30.19,10.0,South,5.8,-,N/A,,Partly Cloudy,190,2013-01-09 20:15:00
3:35 PM,82.4,66.2,58,30.19,10.0,SSW,8.1,-,N/A,,Clear,200,2013-01-09 20:35:00
4:15 PM,80.6,68.0,65,30.20,10.0,SW,5.8,-,N/A,,Partly Cloudy,220,2013-01-09 21:15:00
4:35 PM,78.8,68.0,69,30.20,10.0,WSW,5.8,-,N/A,,Partly Cloudy,240,2013-01-09 21:35:00
4:55 PM,77.0,68.0,74,30.20,10.0,WNW,4.6,-,N/A,,Clear,290,2013-01-09 21:55:00
5:15 PM,77.0,68.0,74,30.20,10.0,WNW,4.6,-,N/A,,Partly Cloudy,290,2013-01-09 22:15:00
5:35 PM,75.2,68.0,78,30.21,10.0,WNW,3.5,-,N/A,,Partly Cloudy,290,2013-01-09 22:35:00
5:55 PM,73.4,68.0,83,30.21,10.0,Calm,Calm,-,N/A,,Partly Cloudy,0,2013-01-09 22:55:00
6:15 PM,75.2,68.0,78,30.21,10.0,Calm,Calm,-,N/A,,Scattered Clouds,0,2013-01-09 23:15:00
6:35 PM,73.4,68.0,83,30.22,10.0,Calm,Calm,-,N/A,,Partly Cloudy,0,2013-01-09 23:35:00
6:55 PM,73.4,68.0,83,30.22,10.0,Calm,Calm,-,N/A,,Clear,0,2013-01-09 23:55:00
7:15 PM,73.4,68.0,83,30.23,10.0,Calm,Calm,-,N/A,,Partly Cloudy,0,2013-01-10 00:15:00
7:35 PM,73.4,68.0,83,30.24,10.0,Calm,Calm,-,N/A,,Clear,0,2013-01-10 00:35:00
7:55 PM,71.6,66.2,83,30.24,10.0,East,4.6,-,N/A,,Clear,100,2013-01-10 00:55:00
8:15 PM,73.4,66.2,78,30.25,10.0,East,6.9,-,N/A,,Clear,90,2013-01-10 01:15:00
8:35 PM,73.4,66.2,78,30.25,10.0,East,8.1,-,N/A,,Clear,100,2013-01-10 01:35:00
8:55 PM,73.4,66.2,78,30.25,10.0,East,6.9,-,N/A,,Clear,100,2013-01-10 01:55:00
9:15 PM,73.4,66.2,78,30.25,10.0,ESE,9.2,-,N/A,,Clear,110,2013-01-10 02:15:00
9:35 PM,73.4,66.2,78,30.26,10.0,ESE,9.2,-,N/A,,Clear,120,2013-01-10 02:35:00
9:55 PM,73.4,66.2,78,30.26,10.0,East,10.4,-,N/A,,Clear,100,2013-01-10 02:55:00
10:15 PM,73.4,66.2,78,30.27,10.0,East,9.2,-,N/A,,Clear,90,2013-01-10 03:15:00
10:35 PM,73.4,66.2,78,30.28,10.0,East,10.4,-,N/A,,Clear,90,2013-01-10 03:35:00
10:55 PM,71.6,66.2,83,30.28,10.0,East,9.2,-,N/A,,Clear,90,2013-01-10 03:55:00
11:15 PM,71.6,68.0,88,30.28,10.0,East,10.4,-,N/A,,Clear,80,2013-01-10 04:15:00
11:35 PM,71.6,68.0,88,30.28,10.0,East,9.2,-,N/A,,Clear,80,2013-01-10 04:35:00
11:55 PM,71.6,68.0,88,30.28,10.0,East,8.1,-,N/A,,Clear,100,2013-01-10 04:55:00